Flag for Canada Weather past 2 weeks in East Hants, Nova Scotia, Canada

Now
32 °F

Snow flurries. Low clouds.


Feels Like: 23 °F
Forecast: 29 / 34 °F
Wind: 12 mph from Southwest

Location: Halifax International Airport

Current Time: Dec 18, 2014 at 11:22:57 PM

Latest Report: Dec 18, 2014 at 10:00 PM


Visibility: 10 mi

Pressure: 29.42 "Hg

Humidity: 93%

Dew point: 30 °F

Location of East HantsLocation

Historic Weather in East Hants — Graph

°F

East Hants temperature yesterday

Maximum temperature yesterday: 43 °F (at 10:00 PM)
Minimum temperature yesterday: 27 °F (at 2:00 AM)
Average temperature yesterday: 31 °F

Past Weeks' High & Low Weather Summary

 TemperatureHumidityPressure
High54 °F (Dec 3, 11:00 PM)100% (Dec 3, 10:00 PM)30.78 "Hg (Dec 3, 10:00 PM)
Low10 °F (Dec 8, 5:00 AM)42% (Dec 5, 2:00 PM)29.36 "Hg (Dec 18, 3:00 PM)
Average34 °F88%30.03 "Hg
* Reported Dec 3 10:00 PM — Dec 18 10:00 PM, East Hants, Weather by CustomWeather, © 2014

Note: Actual official high and low records may vary slightly from our data, if they occured in-between our weather recording intervals... More about our weather records

Advertising

East Hants weather history for previous 24 hours

 ConditionsComfort  
Time TempWeatherWind HumidityBarometerVisibility
10:00 PM
Dec 18
32 °FSnow flurries. Low clouds.12 mph93%29.42 "Hg10 mi
9:00 PM32 °FSnow flurries. Mostly cloudy.10 mph93%29.42 "Hg10 mi
8:00 PM32 °FSnow flurries. Mostly cloudy.10 mph100%29.42 "Hg12 mi
7:00 PM34 °FSnow flurries. Mostly cloudy.10 mph93%29.41 "Hg6 mi
6:00 PM34 °FSnow flurries. Overcast.10 mph93%29.41 "Hg6 mi
5:00 PM36 °FMostly cloudy.13 mph87%29.41 "Hg15 mi
4:00 PM36 °FPartly sunny.14 mph87%29.39 "Hg15 mi
3:50 PM37 °FPartly sunny.13 mph81%29.38 "Hg15 mi
3:00 PM39 °FBroken clouds.16 mph81%29.36 "Hg15 mi
2:00 PM39 °FSprinkles. Partly sunny.15 mph87%29.39 "Hg15 mi
1:00 PM39 °FSprinkles. Partly sunny.16 mph87%29.40 "Hg15 mi
12:00 PM41 °FPartly sunny.14 mph87%29.41 "Hg15 mi
11:00 AM39 °FDrizzle. Partly sunny.18 mph93%29.43 "Hg12 mi
10:48 AM39 °FDrizzle. Partly sunny.16 mph93%29.43 "Hg12 mi
10:00 AM41 °FOvercast.24 mph93%29.41 "Hg15 mi
9:00 AM43 °FLight rain. Fog.20 mph93%29.39 "Hg3 mi
8:00 AM43 °FDrizzle. Fog.14 mph100%29.38 "Hg1 mi
7:00 AM43 °FDrizzle. Fog.13 mph100%29.38 "Hg1 mi
6:00 AM43 °FDrizzle. Fog.15 mph93%29.39 "Hg1 mi
5:00 AM41 °FDrizzle. Fog.21 mph100%29.40 "Hg1 mi
4:00 AM45 °FDrizzle. Fog.14 mph93%29.41 "Hg0 mi
3:50 AM43 °FDrizzle. Fog.10 mph100%29.40 "Hg0 mi
3:00 AM43 °FLight rain. Fog.16 mph100%29.42 "Hg2 mi
2:00 AM41 °FRain. Fog.15 mph100%29.46 "Hg3 mi
1:00 AM41 °FHeavy rain. Fog.26 mph100%29.48 "Hg2 mi
12:04 AM41 °FHeavy rain. Fog.21 mph100%29.55 "Hg2 mi
11:00 PM
Dec 17
41 °FLight rain. Fog.23 mph100%29.63 "Hg1 mi
Weather by CustomWeather, © 2014

See weather overviewHow to use our weather pages